Location: Cella
(44.7333°N, 10.5667°E)
Time: 06:21:26
(UTC+00:00)

Cosmos 1066 Rocket - Pass Details

Date: 03 March 2021
Orbit: 799 x 894 km, 81.2° (Epoch: 19 April)

Event Time Altitude Azimuth Distance (km) Brightness Sun altitude
Rises 19:36:11 0° 347° (NNW) 3,442 7.8 -26.8°
Reaches altitude 10° 19:38:36 10° 346° (NNW) 2,515 7.0 -27.2°
Maximum altitude 19:44:18 72° 263° (W) 922 4.4 -28.1°
Enters shadow 19:45:38 53° 198° (SSW) 1,075 4.6 -28.3°
